Hourly Weather Roundup
Issued by NWS Central Illinois

Home | Current Version | Previous Version | Text Only | Print | Product List | Glossary On
Versions: 1 2 3 4 5 6 7 8 9 10 11 12 13 14 15 16 17 18 19 20 21 22 23 24 25 26 27 28 29 30 31 32 33 34 35 36 37 38 39 40 41 42 43 44 45 46 47 48 49 50
000
NZUS43 KILX 251110
HWRILX

AREA WEATHER ROUNDUP
NATIONAL WEATHER SERVICE, LINCOLN IL
600 AM CDT MON JUL 25 2016


CITY           SKY/WX    TMP DP  RH WIND       PRES   REMARKS
BLOOMINGTON    CLOUDY    72  70  93 W8        30.03R
CHAMPAIGN      CLOUDY    71  68  90 NW3       30.02R
DANVILLE       CLOUDY    69  69  99 CALM      29.99R
DECATUR        CLOUDY    73  69  87 W10       30.03R
EFFINGHAM      CLOUDY    73  73  99 SE6       30.02F
FLORA          CLOUDY    74  71  91 CALM      30.01F
GALESBURG      PTCLDY    69  68  96 NW3       30.03S
JACKSONVILLE   CLOUDY    73  71  92 CALM      29.99F
LACON          CLOUDY    73  70  91 CALM      29.98S
LAWRENCEVILLE  CLOUDY    72  69  90 W3        30.01R
LITCHFIELD     NOT AVBL
$$


CITY           SKY/WX    TMP DP  RH WIND       PRES   REMARKS
LINCOLN        CLOUDY    73  72  96 SW3       30.02R
MACOMB         CLOUDY    72  71  97 CALM      30.05R
MATTOON        CLOUDY    71  69  93 SW7       30.01R
MT CARMEL AP   CLOUDY    71  69  95 CALM      30.00R
OLNEY-NOBLE AP LGT RAIN  70  70 100 CALM      30.02R
PARIS          CLOUDY    70  69  97 S6        29.99S
PEORIA         CLOUDY    75  73  93 W8        30.01S
PONTIAC        CLOUDY    72  71  99 W6        30.00R
RANTOUL        CLOUDY    72  70  94 W5        30.00R
ROBINSON       CLOUDY    68  68  99 CALM      30.01S
SPRINGFIELD    CLOUDY    73  70  90 W3        30.00F
TAYLORVILLE    CLOUDY    71  70  96 SW6       30.00F
$$

...REGIONAL REPORTS...


CITY           SKY/WX    TMP DP  RH WIND       PRES   REMARKS
CHICAGO O`HARE MOCLDY    73  69  87 W7        29.96R
KANKAKEE       PTCLDY    69  67  92 W5        29.97S
MOLINE         CLOUDY    69  65  86 CALM      30.02R
MOUNT STERLING CLOUDY    72  68  87 CALM      30.02S
MOUNT VERNON   CLOUDY    75  66  73 CALM      29.99F
PITTSFIELD     CLOUDY    72  70  96 NW5       30.03S
QUINCY         CLOUDY    75  72  90 E8        30.00S
ROCKFORD       PTCLDY    76  65  68 CALM      30.01R
$$


CITY           SKY/WX    TMP DP  RH WIND       PRES   REMARKS
BURLINGTON     CLOUDY    70  68  93 N7        30.02F
CEDAR RAPIDS   CLEAR     63  63 100 NW6       30.04R
DES MOINES     PTCLDY    70  64  81 N8        30.07R
KIRKSVILLE     MOCLDY    71  66  84 N5        30.05R
OTTUMWA        CLOUDY    62  60  93 CALM      30.06R
ST LOUIS       LGT RAIN  74  71  91 NE5       29.99F
$$


CITY           SKY/WX    TMP DP  RH WIND       PRES   REMARKS
TERRE HAUTE    CLOUDY    71  68  90 W3        30.00R
EVANSVILLE     CLOUDY    75  71  87 CALM      30.00S
INDIANAPOLIS   CLOUDY    72  69  90 SW8       30.01R
LAFAYETTE      MOCLDY    69  69 100 SW3       30.00R
MADISON        PTCLDY    68  64  87 W3        29.99R
MILWAUKEE      PTCLDY    75  65  70 W9        29.96R
$$





USA.gov is the U.S. government's official web portal to all federal, state and local government web resources and services.